Flag for United Kingdom Weather past 2 weeks in Cardiff, Wales, United Kingdom

Now
63 °F

Passing clouds.


Feels Like: 63 °F
Forecast: 52 / 71 °F
Wind: 10 mph from Northeast

Location: Wales Airport

Current Time: Sep 2, 2014 at 12:09:45 PM

Latest Report: Sep 2, 2014 at 11:20 AM


Visibility: N/A

Pressure: 30.21 "Hg

Humidity: 73%

Dew point: 54 °F

Location of CardiffLocation

Historic Weather in Cardiff — Graph

°F

Cardiff temperature yesterday

Maximum temperature yesterday: 70 °F (at 3:20 PM)
Minimum temperature yesterday: 55 °F (at 10:20 PM)
Average temperature yesterday: 62 °F

Past Weeks' High & Low Weather Summary

 TemperatureHumidityPressure
High70 °F (Sep 1, 3:20 PM)100% (Aug 22, 6:50 AM)30.21 "Hg (Aug 22, 6:50 AM)
Low45 °F (Aug 24, 4:20 AM)45% (Aug 20, 12:20 PM)29.53 "Hg (Aug 25, 5:20 PM)
Average58 °F81%29.94 "Hg
* Reported Aug 18 10:20 AM — Sep 2 10:50 AM, Cardiff, Weather by CustomWeather, © 2014

Note: Actual official high and low records may vary slightly from our data, if they occured in-between our weather recording intervals... More about our weather records

Advertising

Cardiff weather history for previous 24 hours

 ConditionsComfort  
Time TempWeatherWind HumidityBarometerVisibility
10:50 AM
Sep 2
61 °FPassing clouds.10 mph72%30.21 "HgN/A
10:20 AM61 °FPassing clouds.10 mph72%30.21 "HgN/A
9:50 AM61 °FPassing clouds.12 mph72%30.21 "HgN/A
9:20 AM59 °FPassing clouds.10 mph77%30.21 "HgN/A
8:50 AM57 °FSunny.8 mph77%30.21 "Hg10 mi
8:20 AM55 °FPassing clouds.10 mph77%30.21 "HgN/A
7:50 AM52 °FPassing clouds.5 mph88%30.21 "HgN/A
7:20 AM50 °FPassing clouds.6 mph88%30.21 "HgN/A
6:50 AM50 °FCool.5 mph88%30.21 "HgN/A
6:20 AM52 °FPassing clouds.6 mph82%30.18 "HgN/A
5:50 AM52 °FPassing clouds.No wind82%30.18 "HgN/A
5:20 AM52 °FPassing clouds.No wind82%30.18 "HgN/A
4:50 AM52 °FPassing clouds.7 mph82%30.18 "HgN/A
4:20 AM52 °FPassing clouds.7 mph82%30.18 "HgN/A
3:50 AM52 °FPassing clouds.7 mph88%30.18 "HgN/A
3:20 AM54 °FPassing clouds.7 mph82%30.21 "HgN/A
2:50 AM54 °FOvercast.7 mph82%30.21 "HgN/A
2:20 AM54 °FPassing clouds.7 mph82%30.21 "HgN/A
1:50 AM54 °FPassing clouds.9 mph82%30.21 "HgN/A
1:20 AM54 °FPassing clouds.10 mph82%30.21 "HgN/A
12:50 AM57 °FPassing clouds.10 mph72%30.18 "HgN/A
12:20 AM57 °FPassing clouds.9 mph67%30.18 "HgN/A
11:50 PM
Sep 1
57 °FPassing clouds.10 mph67%30.18 "HgN/A
11:20 PM57 °FPassing clouds.8 mph72%30.18 "HgN/A
10:50 PM57 °FPassing clouds.7 mph77%30.18 "HgN/A
10:20 PM55 °FPassing clouds.6 mph82%30.18 "HgN/A
9:20 PM57 °FPassing clouds.7 mph77%30.18 "HgN/A
8:50 PM59 °FScattered clouds.10 mph72%30.15 "HgN/A
8:20 PM59 °FScattered clouds.10 mph72%30.15 "HgN/A
7:50 PM61 °FPassing clouds.12 mph72%30.15 "HgN/A
7:20 PM64 °FPassing clouds.10 mph64%30.12 "HgN/A
6:50 PM66 °FPassing clouds.12 mph64%30.12 "HgN/A
6:20 PM66 °FPassing clouds.13 mph64%30.12 "HgN/A
5:20 PM68 °FMild.10 mph64%30.12 "HgN/A
4:50 PM66 °FPassing clouds.12 mph78%30.12 "HgN/A
4:20 PM68 °FScattered clouds.14 mph73%30.12 "HgN/A
3:50 PM68 °FScattered clouds.13 mph73%30.12 "HgN/A
3:20 PM70 °FScattered clouds.12 mph69%30.12 "HgN/A
2:50 PM68 °FScattered clouds.10 mph78%30.12 "HgN/A
2:20 PM68 °FScattered clouds.10 mph83%30.12 "HgN/A
1:50 PM68 °FScattered clouds.9 mph83%30.12 "HgN/A
1:20 PM64 °FBroken clouds.9 mph94%30.12 "HgN/A
12:50 PM64 °FScattered showers. Broken clouds.8 mph94%30.12 "HgN/A
12:20 PM63 °FDrizzle. Partly sunny.10 mph100%30.12 "Hg2 mi
Weather by CustomWeather, © 2014

See weather overviewHow to use our weather pages